, SD

(GMT )
Rapid City

Weather History for KRAP - May, 2013

Change the Weather History Date:

Thursday, May 30, 2013

  Actual Average Record
Temperature  
Mean Temperature 60 °F 59 °F  
Max Temperature 67 °F 72 °F 91 °F (1969)
Min Temperature 52 °F 47 °F 30 °F (1947)
Degree Days  
Heating Degree Days 5 7  
Month to date heating degree days 293 319  
Since 1 July heating degree days 7092 7048  
Cooling Degree Days 0 1  
Month to date cooling degree days 8 6  
Year to date cooling degree days 8 8  
Growing Degree Days 10 (Base 50)    
Moisture  
Dew Point 49 °F    
Average Humidity 71    
Maximum Humidity 93    
Minimum Humidity 48    
Precipitation  
Precipitation 0.07 in 0.12 in 1.19 in (1996)
Month to date precipitation 3.07 3.11  
Year to date precipitation 7.53 6.58  
Snow  
Snow 0.00 in 0.00 in 0.00 in ()
Month to date snowfall 0.0 1.1  
Since 1 July snowfall 76.7 41.1  
Snow Depth 0.00 in    
Sea Level Pressure  
Sea Level Pressure 29.39 in    
Wind  
Wind Speed 13 mph (WNW)    
Max Wind Speed 37 mph    
Max Gust Speed 47 mph    
Visibility 10 miles    
Events Rain    
T = Trace of Precipitation, MM = Missing Value Source: NWS Daily Summary

Daily Weather History Graph

Daily Weather History Graph

Search for Another Location

Airport or City:

Trip Planner

Search our weather history database for the weather conditions in past years. The results will help you decide how hot, cold, wet, or windy it might be!

Date:

Astronomy

May. 30, 2013 Rise Set
Actual Time 5:13 AM MDT 8:26 PM MDT
Civil Twilight 4:37 AM MDT 9:02 PM MDT
Nautical Twilight 3:52 AM MDT 9:48 PM MDT
Astronomical Twilight 2:56 AM MDT 10:44 PM MDT
Moon 12:21 AM MDT (5/30) 11:32 AM MDT (5/30)
Length of Visible Light 16h 24m
Length of Day
15h 13m
Waning Gibbous, 61% of the Moon is Illuminated
May 30
Waning Gibbous
May 31
Last Quarter
Jun 8
New
Jun 16
First Quarter
Jun 23
Full

Hourly Weather History & Observations

Time (MDT) Temp. Dew Point Humidity Pressure Visibility Wind Dir Wind Speed Gust Speed Precip Events Conditions
12:52 AM 54.0 °F 52.0 °F 93% 29.42 in 10.0 mi WNW 9.2 mph - 0.03 in   Mostly Cloudy
1:52 AM 53.1 °F 51.1 °F 93% 29.38 in 10.0 mi NNW 9.2 mph - N/A   Clear
2:52 AM 53.1 °F 51.1 °F 93% 29.37 in 10.0 mi NNE 9.2 mph - N/A   Clear
3:52 AM 53.1 °F 51.1 °F 93% 29.40 in 10.0 mi Variable 6.9 mph - N/A   Overcast
4:28 AM 53.6 °F 51.8 °F 94% 29.45 in 7.0 mi West 3.5 mph - 0.01 in Rain Light Rain
4:35 AM 53.6 °F 51.8 °F 94% 29.45 in 7.0 mi West 3.5 mph - 0.02 in Rain Light Rain
4:52 AM 54.0 °F 51.1 °F 90% 29.41 in 8.0 mi Calm Calm - 0.03 in Rain Light Rain
5:29 AM 53.6 °F 51.8 °F 94% 29.45 in 10.0 mi Calm Calm - 0.01 in Rain Light Rain
5:52 AM 53.1 °F 51.1 °F 93% 29.41 in 10.0 mi WSW 3.5 mph - 0.01 in Rain Light Rain
6:52 AM 54.0 °F 52.0 °F 93% 29.39 in 10.0 mi West 4.6 mph - 0.00 in   Overcast
7:52 AM 55.9 °F 53.1 °F 90% 29.41 in 10.0 mi South 3.5 mph - N/A   Overcast
8:18 AM 57.2 °F 53.6 °F 88% 29.43 in 10.0 mi South 8.1 mph - 0.00 in Rain Light Rain
8:52 AM 57.9 °F 53.1 °F 84% 29.39 in 10.0 mi South 9.2 mph - 0.00 in   Overcast
9:52 AM 62.1 °F 53.1 °F 72% 29.35 in 10.0 mi Variable 3.5 mph - N/A   Overcast
10:52 AM 63.0 °F 51.1 °F 65% 29.35 in 10.0 mi Variable 3.5 mph - 0.00 in Rain Light Rain
11:52 AM 64.0 °F 53.1 °F 67% 29.34 in 10.0 mi Variable 4.6 mph - 0.00 in   Overcast
12:52 PM 64.9 °F 50.0 °F 58% 29.32 in 10.0 mi Variable 6.9 mph 19.6 mph N/A   Overcast
1:52 PM 62.1 °F 53.1 °F 72% 29.32 in 10.0 mi ENE 10.4 mph - N/A   Overcast
2:52 PM 64.0 °F 45.0 °F 50% 29.31 in 10.0 mi West 19.6 mph 23.0 mph N/A   Overcast
3:05 PM 64.4 °F 44.6 °F 49% 29.36 in 10.0 mi WNW 18.4 mph 26.5 mph N/A   Overcast
3:52 PM 61.0 °F 46.9 °F 60% 29.34 in 10.0 mi NW 24.2 mph 32.2 mph N/A   Overcast
4:52 PM 57.9 °F 48.9 °F 72% 29.36 in 10.0 mi NW 12.7 mph - 0.02 in   Overcast
5:52 PM 57.9 °F 46.9 °F 67% 29.37 in 10.0 mi WNW 26.5 mph 32.2 mph 0.00 in   Overcast
6:52 PM 55.9 °F 46.0 °F 69% 29.39 in 10.0 mi NW 24.2 mph 31.1 mph 0.01 in   Overcast
7:52 PM 55.9 °F 43.0 °F 62% 29.42 in 10.0 mi WNW 23.0 mph 35.7 mph N/A   Overcast
8:52 PM 55.9 °F 42.1 °F 60% 29.44 in 10.0 mi NW 29.9 mph 40.3 mph N/A   Overcast
9:52 PM 55.0 °F 42.1 °F 62% 29.46 in 10.0 mi NW 21.9 mph 35.7 mph N/A   Overcast
10:52 PM 54.0 °F 39.9 °F 59% 29.47 in 10.0 mi NW 25.3 mph 35.7 mph N/A   Overcast
11:52 PM 54.0 °F 39.9 °F 59% 29.48 in 10.0 mi WNW 19.6 mph 29.9 mph N/A   Overcast